Wind_Speed
40 46 47 44 40 41 45 50 46 44 40 37 34 31 29 26 24 21 20 19 16 14
32 40 43 44 42 42 39 43 46 43 42 37 33 31 29 27 24 22 19 17 17 16
27 34 37 40 42 43 38 39 44 44 41 38 34 31 29 27 23 21 20 17 15 14
22 27 31 36 42 40 38 38 43 44 41 38 35 31 29 27 24 22 19 18 17 16
20 23 27 32 37 39 38 37 40 43 40 38 36 33 30 27 22 22 22 19 17 16
21 21 24 27 33 36 38 37 39 42 40 38 36 34 31 27 24 22 20 18 17 16
22 21 21 25 29 35 37 38 39 40 41 38 36 34 31 27 24 21 19 18 18 16
24 22 21 24 28 32 36 38 38 39 40 38 36 34 32 29 26 22 19 18 16 16
29 22 23 24 26 31 34 37 38 38 38 37 36 33 32 30 26 22 19 18 16 14
28 24 25 25 27 31 33 37 37 37 36 37 35 33 32 28 22 20 17 15 14 13
31 26 25 24 28 29 32 37 37 36 35 34 32 33 29 26 24 18 15 14 14 15
36 31 26 25 29 31 32 36 35 35 34 35 33 30 27 25 25 19 15 14 14 14
37 32 31 28 30 32 33 36 35 34 35 33 29 29 27 25 20 14 13 13 12 15
40 33 32 30 32 32 33 36 37 36 35 32 28 27 27 23 19 14 13 11 10 10
Wind_Direction
245 237 231 230 230 220 221 236 231 227 224 224 225 225 226 226 226 226 226 224 224 227
252 241 237 233 233 222 217 226 233 228 224 221 221 222 222 222 225 224 222 227 230 232
261 247 239 237 230 222 217 216 230 226 222 218 218 220 218 220 221 222 219 220 225 233
272 253 243 237 229 225 218 213 219 224 217 215 216 216 214 217 216 214 218 222 226 233
283 260 249 238 230 224 219 213 212 219 214 214 213 214 212 212 210 211 214 221 229 240
295 270 253 240 231 224 218 212 206 211 209 210 212 213 211 211 207 211 215 221 226 238
308 283 257 243 232 224 218 211 205 205 209 211 212 212 208 204 206 211 216 220 229 239
308 293 265 243 233 225 218 211 205 200 206 208 210 208 204 203 206 207 215 224 232 251
304 300 272 247 232 224 218 211 204 199 199 200 202 205 204 208 210 211 213 223 235 247
304 290 273 248 229 223 217 209 204 199 195 197 203 200 204 208 212 210 216 225 239 248
299 286 273 257 235 220 217 207 204 197 194 193 194 202 206 204 209 209 216 226 236 247
300 292 278 255 238 218 215 206 203 196 192 191 193 204 201 202 208 211 220 230 241 249
297 284 275 249 233 219 209 204 198 193 190 191 192 202 199 202 201 202 215 232 245 264
295 283 262 238 222 212 204 201 195 191 186 186 189 197 198 202 197 198 213 228 242 257
Height
1442 1441 1444 1449 1450 1447 1446 1450 1456 1461 1466 1470 1475 1479 1482 1486 1489 1491 1494 1496 1498 1500
1433 1433 1433 1439 1443 1441 1442 1444 1448 1453 1458 1464 1468 1473 1477 1480 1484 1487 1489 1491 1493 1495
1425 1426 1426 1430 1434 1432 1436 1438 1439 1445 1451 1457 1462 1467 1471 1475 1479 1483 1485 1488 1489 1491
1419 1419 1419 1420 1424 1427 1430 1432 1432 1436 1442 1450 1455 1460 1465 1469 1473 1477 1482 1483 1485 1486
1412 1413 1412 1412 1415 1420 1423 1427 1427 1430 1435 1441 1448 1454 1459 1463 1468 1471 1475 1478 1480 1480
1408 1406 1405 1405 1409 1414 1417 1420 1421 1423 1428 1433 1440 1446 1452 1458 1463 1466 1469 1472 1474 1475
1404 1402 1399 1400 1403 1407 1411 1413 1415 1417 1420 1426 1432 1439 1446 1452 1458 1461 1465 1468 1468 1470
1399 1397 1395 1395 1396 1400 1404 1408 1411 1412 1414 1419 1425 1432 1439 1446 1451 1456 1460 1462 1463 1464
1394 1389 1390 1389 1390 1392 1397 1402 1406 1408 1409 1412 1419 1426 1433 1439 1445 1450 1454 1456 1458 1459
1391 1387 1388 1385 1384 1384 1390 1396 1400 1405 1406 1408 1414 1419 1426 1434 1440 1445 1449 1451 1453 1454
1386 1381 1377 1377 1377 1377 1384 1388 1395 1399 1403 1406 1411 1414 1422 1429 1436 1441 1444 1446 1449 1449
1375 1369 1367 1366 1371 1373 1378 1383 1389 1395 1398 1402 1406 1411 1418 1425 1431 1436 1438 1442 1443 1444
1367 1363 1360 1361 1364 1368 1372 1378 1384 1390 1394 1398 1403 1408 1415 1422 1427 1431 1435 1438 1439 1439
1356 1351 1353 1352 1358 1361 1366 1373 1377 1384 1389 1394 1399 1405 1412 1418 1423 1428 1432 1434 1436 1436